• MPC Preparation (Info)

  • MPEC 2016-N105: 2010 LO33

    The following Minor Planet Electronic Circular may be linked-to from your own Web pages, but must not otherwise be redistributed electronically.

    A form allowing access to any MPEC is at the bottom of this page.


    Read MPEC 2016-N104 Read MPEC 2016-N106


    M.P.E.C. 2016-N105                               Issued 2016 July 15, 00:20 UT
    
         The Minor Planet Electronic Circulars contain information on unusual
             minor planets and routine data on comets.  They are published
        on behalf of Division F of the International Astronomical Union by the
              Minor Planet Center, Smithsonian Astrophysical Observatory,
                              Cambridge, MA 02138, U.S.A.
    
                 Prepared using the Tamkin Foundation Computer Network
    
                                  MPC@CFA.HARVARD.EDU
                URL https://www.minorplanetcenter.net/    ISSN 1523-6714
    
                                       2010 LO33
    
                               Revision to MPEC 2010-M08
    
    Additional Observations:
         K10L33O  C2011 06 06.38695 15 54 39.228-20 11 30.76         21.6 wLEN105F51
         K10L33O  C2011 06 06.40146 15 54 39.059-20 11 29.97         21.3 wLEN105F51
         K10L33O  C2011 06 06.41589 15 54 38.930-20 11 29.35         21.6 wLEN105F51
         K10L33O  C2011 06 06.43032 15 54 38.790-20 11 28.80         21.4 wLEN105F51
         K10L33O  C2014 04 03.57462 17 02 43.411-18 39 54.28         21.5 wLEN105F51
         K10L33O  C2014 04 03.58696 17 02 43.370-18 39 53.96         21.6 wLEN105F51
         K10L33O  C2014 04 03.59932 17 02 43.324-18 39 53.52         21.4 wLEN105F51
         K10L33O  C2014 04 03.61167 17 02 43.303-18 39 52.98         21.4 wLEN105F51
         K10L33O  C2014 05 21.44493 16 57 12.552-18 12 36.85         21.2 wLEN105F51
         K10L33O  C2014 05 21.45801 16 57 12.425-18 12 36.40         21.1 wLEN105F51
         K10L33O  C2014 05 21.47111 16 57 12.286-18 12 35.99         21.1 wLEN105F51
         K10L33O  C2014 05 21.48418 16 57 12.148-18 12 35.41         21.1 wLEN105F51
         K10L33O  C2014 05 28.43476 16 56 01.160-18 08 36.97         21.1 wLEN105F51
         K10L33O  C2014 05 28.44537 16 56 01.046-18 08 36.52         21.1 wLEN105F51
         K10L33O  C2014 05 28.45598 16 56 00.930-18 08 36.23         21.2 wLEN105F51
         K10L33O  C2014 05 28.46661 16 56 00.824-18 08 35.85         21.2 wLEN105F51
         K10L33O  C2014 06 18.40007 16 52 22.032-17 57 35.47         20.6 iLEN105F51
         K10L33O  C2014 06 18.41265 16 52 21.894-17 57 35.10         20.4 iLEN105F51
         K10L33O  C2014 06 18.42522 16 52 21.777-17 57 34.49         20.8 iLEN105F51
         K10L33O  C2014 06 26.33741 16 51 03.161-17 53 58.01         21.2 wLEN105F51
         K10L33O  C2014 06 26.34802 16 51 03.042-17 53 57.68         21.6 wLEN105F51
         K10L33O  C2014 06 26.35866 16 51 02.951-17 53 57.65         21.4 wLEN105F51
         K10L33O  C2014 06 26.36931 16 51 02.856-17 53 57.18         21.4 wLEN105F51
         K10L33O  C2014 06 28.33676 16 50 44.081-17 53 07.06         21.1 wLEN105F51
         K10L33O  C2014 06 28.34734 16 50 43.980-17 53 06.80         21.2 wLEN105F51
         K10L33O  C2014 06 28.35793 16 50 43.884-17 53 06.58         21.1 wLEN105F51
         K10L33O  C2014 06 28.36851 16 50 43.780-17 53 06.26         21.3 wLEN105F51
         K10L33O  C2014 07 25.31502 16 47 16.009-17 44 26.88         21.4 wLEN105F51
         K10L33O  C2014 07 25.32572 16 47 15.953-17 44 26.70         21.4 wLEN105F51
         K10L33O  C2014 07 25.33634 16 47 15.888-17 44 26.57         21.3 wLEN105F51
         K10L33O  C2014 07 25.34700 16 47 15.835-17 44 26.35         21.3 wLEN105F51
         K10L33O  C2014 08 22.25907 16 45 58.012-17 41 40.86         21.5 wLEN105F51
         K10L33O  C2014 08 22.27074 16 45 58.017-17 41 40.83         21.5 wLEN105F51
         K10L33O  C2014 08 22.28239 16 45 58.016-17 41 40.73         21.6 wLEN105F51
         K10L33O  C2014 08 22.29410 16 45 58.014-17 41 40.77         21.6 wLEN105F51
    
    Observer details:
    F51 Pan-STARRS 1, Haleakala.  Observers B. Gibson, T. Goggia, N. Primak,
        A. Schultz, M. Willman.  Measurers K. Chambers, S. Chastel, Y.-T. Chen,
        L. Denneau, H. Flewelling, M. Holman, M. Huber, R. Jedicke, M. Lackner,
        E. Lilly, H.-W. Lin, E. Magnier, M. Micheli, M. Payne, P. Veres,
        R. Wainscoat, C. Waters, R. Weryk.  1.8-m Ritchey-Chretien + CCD.
    
    First and last observations above in comparison with prediction:
    Residuals in seconds of arc (or two decimals in degrees), reference and Delta-T
    110606 F51 89.2-  0.7+    140822 F51 0.34- 0.06-    MPO183310   +273 day
    
    Orbital elements:
    2010 LO33
    Epoch 2016 July 31.0 TT = JDT 2457600.5                 MPC
    M 330.05432              (2000.0)            P               Q
    n   0.00895917     Peri.   80.96988     +0.74722232     +0.60795046
    a  22.9592419      Node   241.10956     -0.66321505     +0.70797768
    e   0.3154454      Incl.   17.85366     +0.04248072     +0.35939371
    P 110.01           H    8.4           G   0.15           U   1
    Residuals in seconds of arc
    100520 G96  0.5-  0.1-    110606 F51  0.2-  0.0     140618 F51  0.1+  0.1+
    100520 G96  0.4-  0.1-    110606 F51  0.0   0.0     140626 F51  0.0   0.1+
    100520 G96  0.2-  0.3+    110606 F51  0.0   0.0     140626 F51  0.2-  0.2+
    100520 G96  0.6-  0.2-    140403 F51  0.0   0.0     140626 F51  0.0   0.1-
    100607 809  0.7+  0.0     140403 F51  0.1-  0.1-    140626 F51  0.1+  0.1+
    100608 809  0.8+  0.4-    140403 F51  0.2-  0.0     140628 F51  0.0   0.0
    100608 809  0.8+  0.3+    140403 F51  0.0   0.1+    140628 F51  0.0   0.0
    100609 809  1.0+  0.5-    140521 F51  0.0   0.0     140628 F51  0.1+  0.1-
    100612 807  0.1+  0.1-    140521 F51  0.1+  0.0     140628 F51  0.1+  0.0
    100612 807  0.0   0.3+    140521 F51  0.0   0.1-    140725 F51  0.1-  0.0
    100708 807  0.6-  0.0     140521 F51  0.1-  0.1+    140725 F51  0.0   0.0
    100708 807  0.3-  0.1+    140528 F51  0.1+  0.1-    140725 F51  0.0   0.0
    100709 807  0.1-  0.1+    140528 F51  0.1+  0.0     140725 F51  0.1+  0.1+
    100826 807  0.1-  0.4+    140528 F51  0.0   0.0     140822 F51  0.1-  0.1-
    100827 807  0.2-  0.4+    140528 F51  0.1+  0.0     140822 F51  0.0   0.0
    100828 807  0.5-  0.1+    140618 F51  0.0   0.2-    140822 F51  0.0   0.1+
    110606 F51  0.2+  0.2-    140618 F51  0.1-  0.2-    140822 F51  0.1-  0.0
    
    Ephemeris:
    2010 LO33                a,e,i = 22.96, 0.32, 18                 q = 15.717
    Date    TT    R. A. (2000) Decl.     Delta      r     Elong.  Phase     V
    2016 06 15    17 36 27.5 -15 39 43  16.6200 17.6273   172.3     0.4    20.8
    ...
    2016 06 30    17 33 47.3 -15 34 59  16.6358 17.6123   163.4     0.9    20.9
    ...
    2016 07 08    17 32 26.8 -15 33 11  16.6704 17.6044   156.0     1.3    20.9
    ...
    2016 07 14    17 31 30.6 -15 32 10  16.7076 17.5984   150.4     1.6    21.0
    2016 07 15    17 31 21.6 -15 32 02  16.7147 17.5974   149.4     1.7    21.0
    2016 07 16    17 31 12.8 -15 31 54  16.7221 17.5964   148.5     1.7    21.0
    ...
    2016 07 22    17 30 22.6 -15 31 16  16.7714 17.5905   142.7     2.0    21.0
    ...
    2016 07 30    17 29 24.4 -15 30 53  16.8500 17.5825   135.0     2.3    21.0
    ...
    2016 08 14    17 28 06.8 -15 31 27  17.0315 17.5677   120.5     2.8    21.1
    
    A. U. Tomatic                (C) Copyright 2016 MPC           M.P.E.C. 2016-N105
    

    Read MPEC 2016-N104 Read MPEC 2016-N106


    MPEC number:

    Enter an MPEC number in one of the following forms:

    • 1997-B01 (the full form)
    • J97B01 (the packed version of the full form)
    • B01 (the abbreviated form)